Flag for Poland Weather past 2 weeks in Kielce, Poland

Now
44 °F

Fog.


Feels Like: 44 °F
Forecast: 53 / 71 °F
Wind: No wind

Location: Kielce

Current Time: Aug 22, 2014 at 8:22:18 AM

Latest Report: Aug 22, 2014 at 7:00 AM


Visibility: 0 mi

Pressure: 30.12 "Hg

Humidity: 100%

Dew point: 44 °F

Location of KielceLocation

Historic Weather in Kielce — Graph

°F

Kielce temperature yesterday

Maximum temperature yesterday: 59 °F (at 6:00 PM)
Minimum temperature yesterday: 50 °F (at 10:00 PM)
Average temperature yesterday: 55 °F

Past Weeks' High & Low Weather Summary

 TemperatureHumidityPressure
High84 °F (Aug 11, 1:00 PM)100% (Aug 9, 12:00 AM)30.12 "Hg (Aug 9, 12:00 AM)
Low42 °F (Aug 22, 6:00 AM)45% (Aug 9, 4:00 PM)29.62 "Hg (Aug 14, 12:00 AM)
Average63 °F82%29.92 "Hg
* Reported Aug 7 6:00 AM — Aug 22 6:00 AM, Kielce, Weather by CustomWeather, © 2014

Note: Actual official high and low records may vary slightly from our data, if they occured in-between our weather recording intervals... More about our weather records

Advertising

Kielce weather history for previous 24 hours

 ConditionsComfort  
Time TempWeatherWind HumidityBarometerVisibility
6:00 AM
Aug 22
42 °FFog.No wind99%30.12 "Hg0 mi
5:00 AM43 °FFog.1 mph99%30.11 "Hg1 mi
4:00 AM43 °FFog.1 mph100%30.11 "Hg1 mi
3:00 AM44 °FFog.1 mph100%30.11 "Hg1 mi
2:00 AM45 °FFog.1 mph98%30.11 "Hg0 mi
1:00 AM47 °FFog.No wind97%30.11 "Hg2 mi
12:00 AM49 °FFog.1 mph96%30.10 "Hg5 mi
11:00 PM
Aug 21
51 °FOvercast.1 mph96%30.09 "Hg5 mi
10:00 PM50 °FFog.1 mph97%30.09 "Hg3 mi
9:00 PM51 °FFog.No wind94%30.08 "Hg1 mi
8:00 PM53 °FPassing clouds.1 mph92%30.06 "Hg7 mi
7:00 PM57 °FPassing clouds.2 mph82%30.03 "Hg22 mi
6:00 PM59 °FPartly sunny.2 mph70%30.03 "Hg19 mi
5:00 PM58 °FPartly sunny.1 mph74%30.04 "Hg25 mi
4:00 PM58 °FPartly sunny.1 mph75%30.04 "Hg22 mi
3:00 PM55 °FOvercast.2 mph85%30.05 "Hg22 mi
2:00 PM54 °FLight rain. Overcast.5 mph88%30.04 "Hg6 mi
1:00 PM54 °FRain. Low clouds.5 mph91%30.04 "Hg6 mi
12:00 PM55 °FRain. Low clouds.5 mph94%30.04 "Hg4 mi
11:00 AM56 °FLight rain. Low clouds.2 mph93%30.03 "Hg5 mi
10:00 AM56 °FRain. Low clouds.1 mph89%30.02 "Hg6 mi
9:00 AM55 °FLight rain. Overcast.1 mph89%30.02 "Hg9 mi
8:00 AM56 °FLight rain. Overcast.1 mph81%29.99 "Hg19 mi
Weather by CustomWeather, © 2014

See weather overviewHow to use our weather pages